CZ-6A DEB, 54575

Orbit data source: Space-Track

CZ-6A DEB, 54575 is space debris in SSO originally from a launch on Fri, 11 Nov 2022 UTC launched from the Taiyaun Space Center, China (TSC). Debris objects in space refer to the collection of defunct objects orbiting the Earth. Examples of debris include non-operational satellites, rocket bodies, and fragments generated from explosions, collisions, or faulty payload assembly.

Loading next visibility...
Identifier
54575, 2022-151MB
Orbit
SSO
Country
Flag of CNCN / PRC
Related business
Manufacturer
SAST
Mission
Spacecraft
Bus & Motor
Unknown
Mass
Unknown
Launch date (UTC)
2022-11-11 (3 years ago)
Launch vehicle
Unknown
Launch site
Taiyaun Space Center, China (TSC)
Object type
Payload
Rocket body
Debris
Shape & HBR
Unknown shape, 0.1 m
Radar Cross Section
Small (<0.1 m²)

Expand to show TLE details & history
Last TLE update: 6 hours ago

TLE from 6 hours ago
0 CZ-6A DEB
1 54575U 22151MB  26130.43917668  .00003321  00000-0  55071-3 0  9993
2 54575  98.6255 203.5212 0121260  26.2434 334.4844 14.66196019184513
Epoch: 2026-05-10T10:32Z
TLE epoch observation values (Epoch: 2026-05-10T10:32:24.865Z)
Latitude
-0.00005°
Longitude
177.17536°
Altitude
599.233 km
Speed
7.601 km/s
True Right ascension
13h 34m 05s
True Declination
0° 00' 00"
Sunlit
Object was in full shadow at epoch
Visualization orbit readout
Latitude
Unknown
Longitude
Unknown
Altitude
Unknown
Speed
Unknown
Apparent Right ascension
Unknown
Apparent Declination
Unknown
Sunlit
N/A
Visualization observer readout
Local Sidereal Time
01:07:50
Azimuth
Unknown
Elevation
Unknown
Doppler factor
Unknown
Orbital elements
Apogee altitude
755.8 km
Perigee altitude
584.861 km
Semi-major axis
7,048.468 km
Eccentricity
0.01213
Inclination
98.6255°
RAAN
203.5212°
Arg. of periapsis
26.2434°
True anomaly
333.87756°
Mean anomaly
334.4844°
Eccentric anomaly
334.18182°
Mean motion
3.66776 °/min
Orbital period
98.15 mins
BSTAR
0.00055071
Loading maneuver chart data...
Computing Atmospheric mass density...
Loading historical data...
Loading historical data...
Loading historical data...
Loading historical data...
Loading historical data...
Loading historical data...
Loading historical data...

Documentation

Showing up to 5 results
|